When you browse on this site, cookies collect data to enhance your experience and personalize the content and advertising you see.
Visit our Privacy Policy to learn more. By continuing to use the site, you agree to this use of cookies and data.
  • In United Kingdom
  • List of Countries
  • For 7 days
  • Water Temperature
  • Satellite Maps
  • Weather Map
  • Weather Widgets
  • user-avatar
    Login

    Hourly Weather Świebodzice

    Today, 16 January, Wednesday

    Time Temperature Precipitation Wind Pressure Humidity
    00:00 +1°C° 0.1 mm 9 mps 731 mmHg 83%
    01:00 +2°C° 0 mm 7 mps 731 mmHg 82%
    02:00 +2°C° 0.2 mm 7 mps 731 mmHg 83%
    03:00 +2°C° 0.2 mm 7 mps 731 mmHg 83%
    04:00 +1°C° 0.2 mm 8 mps 731 mmHg 84%
    05:00 +1°C° 0.1 mm 8 mps 731 mmHg 84%
    06:00 +2°C° 0.1 mm 7 mps 732 mmHg 84%
    07:00 +2°C° 0.1 mm 7 mps 732 mmHg 85%
    08:00 +2°C° 0 mm 7 mps 732 mmHg 84%
    09:00 +2°C° 0 mm 6 mps 733 mmHg 83%
    10:00 +2°C° 0 mm 6 mps 733 mmHg 82%
    11:00 +3°C° 0 mm 6 mps 733 mmHg 81%
    12:00 +3°C° 0 mm 5 mps 733 mmHg 79%
    13:00 +3°C° 0 mm 5 mps 733 mmHg 78%
    14:00 +4°C° 0 mm 4 mps 733 mmHg 80%
    15:00 +3°C° 0 mm 4 mps 733 mmHg 82%
    16:00 +3°C° 0 mm 4 mps 732 mmHg 84%
    17:00 +3°C° 0 mm 4 mps 732 mmHg 83%
    18:00 +1°C° 0 mm 5 mps 732 mmHg 83%
    19:00 +1°C° 0 mm 5 mps 731 mmHg 82%
    20:00 +1°C° 0 mm 6 mps 731 mmHg 81%
    21:00 +1°C° 0 mm 6 mps 731 mmHg 80%
    22:00 +1°C° 0 mm 6 mps 730 mmHg 79%
    23:00 +1°C° 0 mm 6 mps 730 mmHg 75%

    Tomorrow, 17 January, Thursday

    Time Temperature Precipitation Wind Pressure Humidity
    00:00 +1°C° 0 mm 6 mps 729 mmHg 72%
    01:00 0°C° 0 mm 7 mps 729 mmHg 69%
    02:00 0°C° 0 mm 7 mps 729 mmHg 67%
    03:00 0°C° 0 mm 8 mps 728 mmHg 66%
    04:00 0°C° 0 mm 8 mps 728 mmHg 65%
    05:00 0°C° 0 mm 8 mps 728 mmHg 67%
    06:00 0°C° 0 mm 8 mps 728 mmHg 69%
    07:00 0°C° 0 mm 7 mps 728 mmHg 70%
    08:00 +2°C° 0 mm 7 mps 728 mmHg 72%
    09:00 +2°C° 0 mm 6 mps 728 mmHg 74%
    10:00 +3°C° 0 mm 6 mps 728 mmHg 75%
    11:00 +3°C° 0 mm 6 mps 728 mmHg 74%
    12:00 +4°C° 0 mm 6 mps 728 mmHg 72%
    13:00 +4°C° 0 mm 6 mps 728 mmHg 70%
    14:00 +4°C° 0 mm 6 mps 728 mmHg 73%
    15:00 +3°C° 0 mm 6 mps 728 mmHg 76%
    16:00 +3°C° 0 mm 6 mps 727 mmHg 78%
    17:00 +3°C° 0 mm 6 mps 727 mmHg 77%
    18:00 +3°C° 0 mm 7 mps 728 mmHg 75%
    19:00 +2°C° 0 mm 7 mps 728 mmHg 74%
    20:00 +2°C° 0.3 mm 7 mps 728 mmHg 73%
    21:00 +1°C° 0.3 mm 6 mps 729 mmHg 73%
    22:00 -1°C° 0.3 mm 6 mps 729 mmHg 73%
    23:00 -1°C° 0 mm 6 mps 730 mmHg 72%

    Day after tomorrow, 18 January, Friday

    Time Temperature Precipitation Wind Pressure Humidity
    00:00 -1°C° 0 mm 5 mps 730 mmHg 72%
    01:00 -2°C° 0 mm 5 mps 730 mmHg 72%
    02:00 -3°C° 0 mm 6 mps 730 mmHg 71%
    03:00 -3°C° 0 mm 7 mps 731 mmHg 70%
    04:00 -4°C° 0 mm 8 mps 731 mmHg 69%
    05:00 -4°C° 0.1 mm 8 mps 732 mmHg 70%
    06:00 -4°C° 0.1 mm 8 mps 732 mmHg 72%
    07:00 -4°C° 0.1 mm 8 mps 733 mmHg 73%
    08:00 -4°C° 0 mm 8 mps 734 mmHg 73%
    09:00 -4°C° 0 mm 8 mps 735 mmHg 72%
    10:00 -4°C° 0 mm 8 mps 736 mmHg 71%
    11:00 -3°C° 0 mm 7 mps 737 mmHg 70%
    12:00 -2°C° 0 mm 7 mps 737 mmHg 69%
    13:00 -2°C° 0 mm 7 mps 738 mmHg 69%
    14:00 -1°C° 0 mm 5 mps 738 mmHg 70%
    15:00 -2°C° 0 mm 4 mps 739 mmHg 71%
    16:00 -1°C° 0 mm 3 mps 739 mmHg 73%
    17:00 -2°C° 0 mm 3 mps 739 mmHg 77%
    18:00 -2°C° 0 mm 2 mps 740 mmHg 80%
    19:00 -1°C° 0 mm 1 mps 740 mmHg 84%
    20:00 -1°C° 0 mm 1 mps 740 mmHg 83%
    21:00 -1°C° 0 mm 1 mps 740 mmHg 82%
    22:00 -1°C° 0 mm 1 mps 741 mmHg 81%
    23:00 -1°C° 0 mm 1 mps 741 mmHg 81%

    19 January, Saturday

    Time Temperature Precipitation Wind Pressure Humidity
    00:00 -1°C° 0 mm 1 mps 741 mmHg 80%
    01:00 -1°C° 0 mm 1 mps 741 mmHg 80%
    02:00 -1°C° 0 mm 1 mps 740 mmHg 79%
    03:00 -1°C° 0 mm 1 mps 740 mmHg 78%
    04:00 -1°C° 0 mm 1 mps 740 mmHg 78%
    05:00 -2°C° 0 mm 1 mps 740 mmHg 77%
    06:00 -2°C° 0 mm 1 mps 740 mmHg 76%
    07:00 -2°C° 0 mm 1 mps 740 mmHg 75%
    08:00 -1°C° 0 mm 1 mps 740 mmHg 72%
    09:00 0°C° 0 mm 1 mps 740 mmHg 68%
    10:00 0°C° 0 mm 1 mps 740 mmHg 64%
    11:00 +1°C° 0 mm 1 mps 740 mmHg 60%
    12:00 +2°C° 0 mm 1 mps 740 mmHg 56%
    13:00 +2°C° 0 mm 1 mps 739 mmHg 53%
    14:00 +2°C° 0 mm 1 mps 739 mmHg 57%
    15:00 +1°C° 0 mm 1 mps 739 mmHg 61%
    16:00 0°C° 0 mm 1 mps 738 mmHg 66%
    17:00 0°C° 0 mm 1 mps 739 mmHg 68%
    18:00 -1°C° 0 mm 1 mps 739 mmHg 71%
    19:00 -1°C° 0 mm 1 mps 739 mmHg 74%
    20:00 -1°C° 0 mm 1 mps 739 mmHg 75%
    21:00 -2°C° 0 mm 1 mps 739 mmHg 75%
    22:00 -3°C° 0 mm 0 mps 739 mmHg 76%
    23:00 -3°C° 0 mm 0 mps 739 mmHg 76%

    20 January, Sunday

    Time Temperature Precipitation Wind Pressure Humidity
    00:00 -3°C° 0 mm 0 mps 739 mmHg 76%
    01:00 -3°C° 0 mm 0 mps 739 mmHg 77%
    02:00 -3°C° 0 mm 0 mps 739 mmHg 77%
    03:00 -3°C° 0 mm 0 mps 738 mmHg 78%
    04:00 -3°C° 0 mm 0 mps 738 mmHg 78%
    05:00 -4°C° 0 mm 0 mps 739 mmHg 79%
    06:00 -4°C° 0 mm 0 mps 739 mmHg 80%
    07:00 -4°C° 0 mm 0 mps 739 mmHg 80%
    08:00 -3°C° 0 mm 0 mps 739 mmHg 76%
    09:00 -2°C° 0 mm 0 mps 740 mmHg 73%
    10:00 -2°C° 0 mm 0 mps 740 mmHg 69%
    11:00 -1°C° 0 mm 0 mps 740 mmHg 64%
    12:00 +1°C° 0 mm 1 mps 740 mmHg 59%
    13:00 +1°C° 0 mm 1 mps 741 mmHg 55%
    14:00 +1°C° 0 mm 1 mps 741 mmHg 58%
    15:00 0°C° 0 mm 1 mps 741 mmHg 62%
    16:00 -1°C° 0 mm 1 mps 741 mmHg 65%
    17:00 -1°C° 0 mm 1 mps 741 mmHg 67%
    18:00 -1°C° 0 mm 1 mps 742 mmHg 69%
    19:00 -2°C° 0 mm 1 mps 742 mmHg 70%
    20:00 -2°C° 0 mm 1 mps 743 mmHg 71%
    21:00 -2°C° 0 mm 1 mps 743 mmHg 72%
    22:00 -4°C° 0 mm 2 mps 744 mmHg 73%
    23:00 -4°C° 0 mm 2 mps 744 mmHg 77%

    21 January, Monday

    Time Temperature Precipitation Wind Pressure Humidity
    00:00 -4°C° 0 mm 2 mps 744 mmHg 80%
    01:00 -4°C° 0 mm 2 mps 745 mmHg 84%
    02:00 -5°C° 0 mm 2 mps 745 mmHg 88%
    03:00 -5°C° 0 mm 2 mps 745 mmHg 92%
    04:00 -5°C° 0 mm 2 mps 745 mmHg 95%
    05:00 -5°C° 0 mm 2 mps 746 mmHg 94%
    06:00 -3°C° 0 mm 1 mps 746 mmHg 93%
    07:00 -4°C° 0 mm 1 mps 746 mmHg 91%
    08:00 -3°C° 0 mm 1 mps 747 mmHg 86%
    09:00 -3°C° 0 mm 1 mps 747 mmHg 81%
    10:00 -3°C° 0 mm 1 mps 748 mmHg 76%
    11:00 -2°C° 0 mm 1 mps 748 mmHg 71%
    12:00 -2°C° 0 mm 1 mps 748 mmHg 65%
    13:00 -1°C° 0 mm 1 mps 748 mmHg 60%
    14:00 -1°C° 0 mm 1 mps 748 mmHg 62%
    15:00 -2°C° 0 mm 1 mps 747 mmHg 64%
    16:00 -2°C° 0 mm 1 mps 747 mmHg 67%
    17:00 -3°C° 0 mm 1 mps 747 mmHg 69%
    18:00 -3°C° 0 mm 1 mps 748 mmHg 71%
    19:00 -3°C° 0 mm 1 mps 748 mmHg 74%
    20:00 -4°C° 0 mm 1 mps 747 mmHg 75%
    21:00 -4°C° 0 mm 1 mps 747 mmHg 75%
    22:00 -4°C° 0 mm 1 mps 747 mmHg 76%
    23:00 -4°C° 0 mm 1 mps 747 mmHg 75%
    Show more